GW6609 Weather Reports


time (UTC)temp
C
wind
direction
speed
KPH
gust
KPH
rain 1hr
cm
rain 24hr
cm
rain mn
cm
humidity
%
barometer
mb
20260505014615 25 49 1.6 3.2 0.00 0.00 0.53 90 1007.0
20260505014114 24 41 3.2 3.2 0.00 0.00 0.53 90 1007.0
20260505013614 24 53 3.2 3.2 0.00 0.00 0.53 90 1007.0
20260505013115 24 54 1.6 3.2 0.00 0.00 0.53 90 1007.0
20260505012614 24 55 1.6 1.6 0.00 0.00 0.53 90 1007.0
20260505012115 24 51 3.2 3.2 0.00 0.00 0.53 90 1007.0
20260505011614 24 43 1.6 3.2 0.00 0.00 0.53 91 1007.0
20260505011114 24 49 1.6 1.6 0.00 0.00 0.53 91 1007.0
20260505010614 24 57 1.6 3.2 0.00 0.00 0.53 91 1007.0
20260505010120 24 39 1.6 3.2 0.00 0.00 0.53 91 1007.0
20260505005614 24 47 3.2 3.2 0.00 0.00 0.53 91 1007.0
20260505005114 24 51 1.6 1.6 0.00 0.00 0.53 91 1007.0
20260505004614 24 40 3.2 3.2 0.00 0.00 0.53 91 1007.0
20260505004114 24 49 1.6 3.2 0.00 0.00 0.53 91 1007.0
20260504215115 24 66 1.6 1.6 0.00 0.00 0.53 91 1006.0
20260504214614 24 69 3.2 3.2 0.00 0.00 0.53 91 1006.0
20260504214114 23 60 3.2 3.2 0.00 0.00 0.53 91 1006.0
20260504213614 23 62 1.6 1.6 0.00 0.00 0.53 91 1006.0
20260504213114 23 73 3.2 4.8 0.00 0.00 0.53 91 1006.0
20260504212615 23 58 1.6 1.6 0.00 0.00 0.53 91 1006.0
20260504212114 23 59 3.2 3.2 0.00 0.00 0.53 91 1006.0
20260504211616 23 58 1.6 1.6 0.18 0.00 0.53 91 1006.0
20260504211114 23 51 3.2 4.8 0.18 0.00 0.53 91 1006.0
20260504210614 23 56 1.6 1.6 0.18 0.00 0.53 90 1006.0
20260504210114 23 53 1.6 1.6 0.00 0.00 0.51 90 1006.0
20260504205615 23 59 1.6 1.6 0.13 0.00 0.51 90 1006.0
20260504205114 23 59 1.6 1.6 0.13 0.00 0.51 90 1006.0
20260504204614 23 70 1.6 1.6 0.18 0.00 0.48 90 1006.0
20260504204115 23 43 6.4 8.0 0.30 0.00 0.48 90 1007.0
20260504203615 23 65 1.6 1.6 0.13 0.00 0.46 90 1007.0
20260504203114 23 61 1.6 1.6 0.18 0.00 0.43 90 1007.0
20260504202615 23 54 6.4 9.7 0.30 0.00 0.43 90 1007.0
20260504202114 23 48 4.8 4.8 0.30 0.00 0.41 90 1007.0
20260504201614 23 52 1.6 3.2 0.48 0.00 0.38 90 1007.0
20260504201114 23 27 4.8 9.7 0.48 0.00 0.36 90 1007.0
20260504200615 23 65 3.2 3.2 0.30 0.00 0.30 90 1007.0
20260504200115 23 60 3.2 3.2 0.30 0.00 0.28 90 1007.0
20260504195615 23 62 1.6 3.2 0.48 0.00 0.25 90 1007.0
20260504195114 23 52 4.8 4.8 0.43 0.00 0.23 90 1007.0
20260504160115 29 100 3.2 3.2 0.00 0.00 0.00 76 1008.0
20260504151115 29 57 1.6 1.6 0.00 0.00 0.00 73 1006.0
20260504150614 29 54 1.6 1.6 0.00 0.00 0.00 73 1006.0
20260504150117 29 40 4.8 4.8 0.00 0.00 0.00 73 1006.0
20260504141115 30 63 3.2 4.8 0.00 0.00 0.00 73 1005.0
20260504140615 30 10 6.4 11.3 0.00 0.00 0.00 73 1005.0
20260504140115 30 20 1.6 4.8 0.00 0.00 0.00 73 1005.0
20260504130615 31 51 1.6 3.2 0.00 0.00 0.00 72 1004.0
20260504130116 31 54 1.6 1.6 0.00 0.00 0.00 71 1004.0
20260504120114 33 62 3.2 3.2 0.00 0.00 0.00 69 1003.0
20260504110615 35 60 0.0 0.0 0.00 0.00 0.00 57 1003.0
20260504110114 35 46 3.2 3.2 0.00 0.00 0.00 55 1003.0
20260504100614 35 45 3.2 3.2 0.00 0.00 0.00 55 1003.0
20260504100114 35 61 1.6 1.6 0.00 0.00 0.00 56 1003.0
20260504090114 35 47 4.8 8.0 0.00 0.00 0.00 57 1004.0
20260504081615 33 42 8.0 9.7 0.00 0.00 0.00 59 1005.0
20260504081115 34 36 6.4 9.7 0.00 0.00 0.00 59 1005.0
20260504080615 35 29 4.8 4.8 0.00 0.00 0.00 57 1005.0
20260504080115 35 57 4.8 8.0 0.00 0.00 0.00 57 1005.0
20260504070114 34 64 1.6 1.6 0.00 0.00 0.00 53 1007.0
20260504060114 32 228 6.4 8.0 0.00 0.00 0.00 59 1008.0
20260504050614 32 216 9.7 11.3 0.00 0.00 0.00 60 1008.0
20260504050114 32 257 8.0 9.7 0.00 0.00 0.00 58 1009.0
20260504045614 31 154 6.4 8.0 0.00 0.00 0.00 60 1008.0
20260504045114 31 236 6.4 9.7 0.00 0.00 0.00 61 1009.0
20260504044614 31 209 8.0 12.9 0.00 0.00 0.00 60 1009.0
20260504044115 32 59 4.8 8.0 0.00 0.00 0.00 59 1009.0
20260504043618 31 84 1.6 1.6 0.00 0.00 0.00 60 1009.0
20260504043114 32 278 6.4 8.0 0.00 0.00 0.00 59 1009.0
20260504042614 32 64 3.2 3.2 0.00 0.00 0.00 59 1009.0
20260504042114 31 277 6.4 9.7 0.00 0.00 0.00 60 1009.0
20260504041615 31 244 6.4 8.0 0.00 0.00 0.00 60 1009.0
20260504041114 31 69 4.8 9.7 0.00 0.00 0.00 62 1009.0
20260504040614 31 166 6.4 8.0 0.00 0.00 0.00 62 1009.0
20260504040114 31 70 4.8 8.0 0.00 0.00 0.00 61 1009.0
20260504035614 31 59 3.2 4.8 0.00 0.00 0.00 60 1009.0
20260504035114 31 207 8.0 12.9 0.00 0.00 0.00 59 1009.0
20260504034614 31 59 3.2 4.8 0.00 0.00 0.00 58 1009.0
20260504034114 32 105 3.2 3.2 0.00 0.00 0.00 55 1009.0
20260504033615 32 164 8.0 9.7 0.00 0.00 0.00 55 1009.0
20260504032635 31 337 4.8 4.8 0.00 0.00 0.00 56 1008.0
20260504032114 31 111 4.8 4.8 0.00 0.00 0.00 59 1008.0
20260504031614 31 110 3.2 3.2 0.00 0.00 0.00 56 1008.0
20260504031115 32 52 1.6 1.6 0.00 0.00 0.00 54 1008.0
20260504030614 32 52 0.0 0.0 0.00 0.00 0.00 53 1008.0
20260504030115 31 52 0.0 1.6 0.00 0.00 0.00 55 1008.0
20260504025615 31 52 0.0 1.6 0.00 0.00 0.00 56 1008.0
20260504025114 31 52 0.0 0.0 0.00 0.00 0.00 57 1008.0
20260504024614 31 52 1.6 1.6 0.00 0.00 0.00 59 1007.0
20260504024114 30 53 1.6 1.6 0.00 0.00 0.00 61 1007.0
20260504023614 30 49 3.2 3.2 0.00 0.00 0.00 62 1007.0
20260504023115 30 67 8.0 8.0 0.00 0.00 0.00 62 1007.0
20260504022614 29 72 1.6 3.2 0.00 0.00 0.00 63 1007.0
20260504022114 29 71 3.2 3.2 0.00 0.00 0.00 65 1007.0
20260504021614 29 68 3.2 3.2 0.00 0.00 0.00 64 1007.0
20260504021115 28 72 1.6 3.2 0.00 0.00 0.00 66 1007.0
20260504020614 28 57 0.0 0.0 0.00 0.00 0.00 69 1007.0
20260504020114 28 58 3.2 3.2 0.00 0.00 0.00 69 1007.0
20260504015615 27 61 1.6 3.2 0.00 0.00 0.00 70 1007.0
20260504015114 27 74 4.8 4.8 0.00 0.00 0.00 71 1007.0